IGO516 VOHS-VOMM

Flight info

Callsign IGO516
Flight time 0h 54m
Altitude 37000
Route LURGI7 LURGI DCT BOPRI BOPRI2E
Aircraft A20N/M-SDE2E3FGHIRWXY/LB1

Departure

Time 2026-04-20 13:24
Airport Rajiv Gandhi International Airport (VOHS)

Arrival

Time 2026-04-20 14:18
Airport Chennai International Airport (VOMM)
Time Latitude Longitude Altitude Speed Heading
2026-04-20 12:43 17.23428 78.42811 1983 ft 0 kts 359°
2026-04-20 12:52 17.23413 78.42811 1984 ft 3 kts 359°
2026-04-20 12:52 17.23392 78.42811 1983 ft 3 kts 359°
2026-04-20 12:52 17.23371 78.42811 1984 ft 3 kts 359°
2026-04-20 12:52 17.23351 78.42812 1984 ft 3 kts 351°
2026-04-20 12:53 17.23333 78.42820 1982 ft 3 kts 310°
2026-04-20 12:53 17.23328 78.42830 1982 ft 0 kts 269°
2026-04-20 13:00 17.23328 78.42829 1982 ft 0 kts 269°
2026-04-20 13:01 17.23328 78.42830 1982 ft 0 kts 269°
2026-04-20 13:01 17.23328 78.42829 1982 ft 0 kts 269°
2026-04-20 13:01 17.23328 78.42827 1982 ft 1 kts 269°
2026-04-20 13:02 17.23429 78.42811 1983 ft 0 kts 359°
2026-04-20 13:08 17.23428 78.42811 1955 ft 0 kts 359°
2026-04-20 13:13 17.23417 78.42811 1985 ft 3 kts 359°
2026-04-20 13:13 17.23396 78.42811 1983 ft 3 kts 359°
2026-04-20 13:14 17.23375 78.42811 1983 ft 3 kts 359°
2026-04-20 13:14 17.23354 78.42812 1983 ft 3 kts 359°
2026-04-20 13:14 17.23335 78.42816 1982 ft 3 kts 324°
2026-04-20 13:14 17.23328 78.42829 1984 ft 0 kts 266°
2026-04-20 13:15 17.23328 78.42830 1984 ft 0 kts 256°
2026-04-20 13:15 17.23328 78.42828 1984 ft 0 kts 270°
2026-04-20 13:18 17.23328 78.42827 1984 ft 0 kts 270°
2026-04-20 13:18 17.23328 78.42824 1984 ft 1 kts 270°
2026-04-20 13:18 17.23327 78.42795 1983 ft 8 kts 268°
2026-04-20 13:18 17.23252 78.42715 1983 ft 19 kts 226°
2026-04-20 13:19 17.23237 78.42587 1983 ft 17 kts 270°
2026-04-20 13:19 17.23236 78.42468 1984 ft 16 kts 270°
2026-04-20 13:19 17.23236 78.42352 1984 ft 15 kts 270°
2026-04-20 13:19 17.23235 78.42245 1983 ft 14 kts 264°
2026-04-20 13:20 17.23233 78.42194 1983 ft 0 kts 292°
2026-04-20 13:20 17.23230 78.42186 1983 ft 5 kts 240°
2026-04-20 13:20 17.23203 78.42204 1984 ft 9 kts 124°
2026-04-20 13:20 17.23117 78.42237 1985 ft 13 kts 179°
2026-04-20 13:21 17.23071 78.42176 1986 ft 11 kts 269°
2026-04-20 13:21 17.23069 78.41977 1984 ft 48 kts 269°
2026-04-20 13:21 17.23061 78.41626 1983 ft 47 kts 271°
2026-04-20 13:21 17.23027 78.41327 1983 ft 18 kts 206°
2026-04-20 13:22 17.22917 78.41340 1984 ft 15 kts 165°
2026-04-20 13:22 17.22862 78.41415 1984 ft 13 kts 92°
2026-04-20 13:22 17.22861 78.41431 1984 ft 0 kts 91°
2026-04-20 13:23 17.22860 78.41479 1984 ft 17 kts 89°
2026-04-20 13:23 17.22862 78.41685 1984 ft 40 kts 89°
2026-04-20 13:23 17.22868 78.42069 1982 ft 73 kts 89°
2026-04-20 13:23 17.22880 78.42894 1983 ft 150 kts 89°
2026-04-20 13:24 17.22888 78.44177 2064 ft 199 kts 90°
2026-04-20 13:24 17.22903 78.45695 2628 ft 213 kts 89°
2026-04-20 13:24 17.22897 78.47233 3599 ft 204 kts 90°
2026-04-20 13:24 17.22737 78.48660 4361 ft 200 kts 111°
2026-04-20 13:25 17.21770 78.49762 4667 ft 221 kts 148°
2026-04-20 13:25 17.20350 78.50498 5082 ft 233 kts 160°
2026-04-20 13:25 17.18685 78.50865 5299 ft 258 kts 172°
2026-04-20 13:25 17.16820 78.51009 5625 ft 276 kts 176°
2026-04-20 13:26 17.14880 78.51066 6259 ft 280 kts 178°
2026-04-20 13:26 17.12924 78.51095 6926 ft 283 kts 179°
2026-04-20 13:26 17.10943 78.51113 7593 ft 286 kts 179°
2026-04-20 13:26 17.08938 78.51126 8272 ft 289 kts 179°
2026-04-20 13:27 17.06910 78.51136 8957 ft 293 kts 179°
2026-04-20 13:27 17.04862 78.51145 9654 ft 296 kts 180°
2026-04-20 13:27 17.02785 78.51154 10234 ft 304 kts 180°
2026-04-20 13:27 17.00610 78.51164 10495 ft 322 kts 180°
2026-04-20 13:28 16.98307 78.51173 10736 ft 339 kts 180°
2026-04-20 13:28 16.95917 78.51184 11020 ft 353 kts 180°
2026-04-20 13:28 16.93437 78.51194 11496 ft 358 kts 180°
2026-04-20 13:28 16.90902 78.51205 12065 ft 361 kts 180°
2026-04-20 13:29 16.88423 78.51214 12638 ft 363 kts 180°
2026-04-20 13:29 16.85883 78.51225 13232 ft 366 kts 180°
2026-04-20 13:29 16.83328 78.51235 13819 ft 368 kts 180°
2026-04-20 13:29 16.80753 78.51245 14340 ft 370 kts 180°
2026-04-20 13:30 16.78169 78.51256 14851 ft 374 kts 180°
2026-04-20 13:30 16.75552 78.51267 15369 ft 377 kts 180°
2026-04-20 13:30 16.72918 78.51277 15917 ft 379 kts 180°
2026-04-20 13:30 16.70274 78.51288 16447 ft 383 kts 180°
2026-04-20 13:31 16.67592 78.51298 16991 ft 385 kts 180°
2026-04-20 13:31 16.64903 78.51309 17514 ft 388 kts 180°
2026-04-20 13:31 16.62182 78.51320 17995 ft 392 kts 180°
2026-04-20 13:31 16.59441 78.51331 18433 ft 395 kts 180°
2026-04-20 13:32 16.56694 78.51343 18882 ft 396 kts 180°
2026-04-20 13:32 16.53901 78.51355 18497 ft 415 kts 180°
2026-04-20 13:32 16.50794 78.51363 17247 ft 449 kts 180°
2026-04-20 13:32 16.47790 78.51369 18810 ft 427 kts 181°
2026-04-20 13:33 16.44791 78.51297 18861 ft 437 kts 181°
2026-04-20 13:33 16.41757 78.51326 19332 ft 432 kts 180°
2026-04-20 13:33 16.38797 78.51367 20086 ft 421 kts 180°
2026-04-20 13:33 16.35889 78.51399 20773 ft 415 kts 180°
2026-04-20 13:34 16.33010 78.51424 21281 ft 415 kts 181°
2026-04-20 13:34 16.30150 78.51460 21714 ft 417 kts 179°
2026-04-20 13:34 16.27250 78.51797 22120 ft 421 kts 169°
2026-04-20 13:34 16.24438 78.52704 22521 ft 426 kts 158°
2026-04-20 13:35 16.21841 78.54217 22916 ft 432 kts 146°
2026-04-20 13:35 16.19584 78.56314 23300 ft 438 kts 133°
2026-04-20 13:35 16.17761 78.58876 23631 ft 444 kts 122°
2026-04-20 13:35 16.16356 78.61750 23963 ft 448 kts 116°
2026-04-20 13:36 16.15075 78.64719 24289 ft 451 kts 115°
2026-04-20 13:36 16.13801 78.67704 24618 ft 454 kts 116°
2026-04-20 13:36 16.12509 78.70708 24963 ft 456 kts 116°
2026-04-20 13:36 16.11202 78.73722 25291 ft 458 kts 116°
2026-04-20 13:37 16.09883 78.76750 25630 ft 461 kts 116°
2026-04-20 13:37 16.08551 78.79796 25942 ft 463 kts 117°
2026-04-20 13:37 16.07212 78.82855 26250 ft 466 kts 117°
2026-04-20 13:37 16.05862 78.85931 26557 ft 469 kts 117°
2026-04-20 13:38 16.04509 78.89014 26869 ft 471 kts 117°
2026-04-20 13:38 16.03144 78.92122 27158 ft 473 kts 117°
2026-04-20 13:38 16.01770 78.95248 27443 ft 476 kts 117°
2026-04-20 13:38 16.00392 78.98379 27738 ft 478 kts 117°
2026-04-20 13:39 15.99002 79.01540 28034 ft 481 kts 117°
2026-04-20 13:39 15.97611 79.04699 28303 ft 483 kts 118°
2026-04-20 13:39 15.96225 79.07845 28548 ft 485 kts 118°
2026-04-20 13:39 15.94819 79.11038 28817 ft 487 kts 118°
2026-04-20 13:40 15.93405 79.14245 29079 ft 489 kts 118°
2026-04-20 13:40 15.91982 79.17472 29358 ft 491 kts 118°
2026-04-20 13:40 15.90560 79.20695 29743 ft 490 kts 118°
2026-04-20 13:40 15.89144 79.23905 30093 ft 489 kts 118°
2026-04-20 13:41 15.88186 79.26075 30316 ft 488 kts 118°
2026-04-20 13:41 15.86766 79.29290 30646 ft 487 kts 118°
2026-04-20 13:41 15.85356 79.32479 30989 ft 486 kts 118°
2026-04-20 13:41 15.83965 79.35626 31311 ft 485 kts 119°
2026-04-20 13:42 15.82561 79.38800 31650 ft 484 kts 119°
2026-04-20 13:42 15.79757 79.45133 32295 ft 482 kts 119°
2026-04-20 13:42 15.78355 79.48296 32609 ft 481 kts 119°
2026-04-20 13:43 15.76957 79.51450 32926 ft 480 kts 120°
2026-04-20 13:43 15.75566 79.54586 33244 ft 479 kts 120°
2026-04-20 13:43 15.74171 79.57729 33560 ft 478 kts 120°
2026-04-20 13:43 15.72782 79.60859 33856 ft 477 kts 120°
2026-04-20 13:44 15.71414 79.63938 34111 ft 476 kts 120°
2026-04-20 13:44 15.70009 79.67101 34381 ft 474 kts 120°
2026-04-20 13:44 15.68630 79.70204 34642 ft 473 kts 120°
2026-04-20 13:44 15.67252 79.73302 34898 ft 472 kts 120°
2026-04-20 13:45 15.65879 79.76389 35147 ft 471 kts 120°
2026-04-20 13:45 15.64504 79.79476 35390 ft 470 kts 120°
2026-04-20 13:45 15.63133 79.82555 35622 ft 469 kts 120°
2026-04-20 13:45 15.61784 79.85583 35841 ft 469 kts 120°
2026-04-20 13:46 15.60415 79.88654 36067 ft 468 kts 121°
2026-04-20 13:46 15.58803 79.91593 36231 ft 458 kts 133°
2026-04-20 13:46 15.56613 79.93908 36376 ft 444 kts 150°
2026-04-20 13:46 15.53985 79.95410 36537 ft 431 kts 166°
2026-04-20 13:47 15.51106 79.96211 36725 ft 425 kts 173°
2026-04-20 13:47 15.48216 79.96806 36798 ft 424 kts 174°
2026-04-20 13:47 15.42425 79.97943 36802 ft 422 kts 174°
2026-04-20 13:48 15.36656 79.99098 36802 ft 423 kts 173°
2026-04-20 13:48 15.30882 80.00267 36798 ft 423 kts 173°
2026-04-20 13:49 15.25111 80.01439 36801 ft 423 kts 173°
2026-04-20 13:49 15.19330 80.02613 36796 ft 423 kts 173°
2026-04-20 13:50 15.13550 80.03787 36797 ft 423 kts 173°
2026-04-20 13:50 15.07769 80.04961 36799 ft 423 kts 173°
2026-04-20 13:51 15.01994 80.06133 36802 ft 423 kts 173°
2026-04-20 13:51 14.96217 80.07304 36801 ft 423 kts 173°
2026-04-20 13:52 14.90434 80.08476 36801 ft 423 kts 173°
2026-04-20 13:52 14.84685 80.09641 36804 ft 423 kts 173°
2026-04-20 13:53 14.78901 80.10812 36802 ft 424 kts 173°
2026-04-20 13:53 14.73110 80.11984 36806 ft 424 kts 173°
2026-04-20 13:54 14.67320 80.13155 36803 ft 424 kts 173°
2026-04-20 13:54 14.61532 80.14325 36805 ft 424 kts 173°
2026-04-20 13:55 14.55740 80.15495 36803 ft 425 kts 173°
2026-04-20 13:55 14.49930 80.16668 36803 ft 426 kts 173°
2026-04-20 13:56 14.44112 80.17842 36805 ft 426 kts 173°
2026-04-20 13:56 14.38303 80.19014 36801 ft 426 kts 173°
2026-04-20 13:57 14.32507 80.20182 36087 ft 429 kts 173°
2026-04-20 13:57 14.29549 80.20777 35224 ft 436 kts 173°
2026-04-20 13:57 14.26555 80.21380 34473 ft 440 kts 173°
2026-04-20 13:58 14.23541 80.21987 33686 ft 444 kts 173°
2026-04-20 13:58 14.20491 80.22601 32788 ft 448 kts 173°
2026-04-20 13:58 14.17417 80.23220 31955 ft 452 kts 173°
2026-04-20 13:58 14.14322 80.23843 31081 ft 456 kts 172°
2026-04-20 13:59 14.11185 80.24475 30182 ft 461 kts 172°
2026-04-20 13:59 14.08021 80.25111 29150 ft 467 kts 172°
2026-04-20 13:59 14.04813 80.25756 28262 ft 469 kts 172°
2026-04-20 13:59 14.01627 80.26398 27650 ft 464 kts 171°
2026-04-20 14:00 13.98468 80.27034 26946 ft 462 kts 171°
2026-04-20 14:00 13.95314 80.27668 26240 ft 461 kts 171°
2026-04-20 14:00 13.92175 80.28299 25544 ft 459 kts 171°
2026-04-20 14:00 13.89044 80.28927 24835 ft 458 kts 171°
2026-04-20 14:01 13.85955 80.29547 24122 ft 458 kts 171°
2026-04-20 14:01 13.82831 80.30174 23387 ft 458 kts 171°
2026-04-20 14:01 13.79703 80.30801 22545 ft 457 kts 171°
2026-04-20 14:01 13.76599 80.31423 21786 ft 454 kts 170°
2026-04-20 14:02 13.73563 80.32031 21492 ft 440 kts 170°
2026-04-20 14:02 13.70580 80.32631 21371 ft 423 kts 170°
2026-04-20 14:02 13.67749 80.33200 21253 ft 406 kts 170°
2026-04-20 14:02 13.65013 80.33663 21075 ft 392 kts 178°
2026-04-20 14:03 13.62354 80.33456 20870 ft 378 kts 191°
2026-04-20 14:03 13.59817 80.32895 20692 ft 366 kts 194°
2026-04-20 14:03 13.57379 80.32294 20514 ft 355 kts 194°
2026-04-20 14:03 13.54998 80.31702 20127 ft 351 kts 194°
2026-04-20 14:04 13.52616 80.31115 19672 ft 350 kts 194°
2026-04-20 14:04 13.50251 80.30536 19240 ft 349 kts 193°
2026-04-20 14:04 13.47897 80.29964 18820 ft 347 kts 193°
2026-04-20 14:04 13.45550 80.29396 18409 ft 345 kts 193°
2026-04-20 14:05 13.43219 80.28833 17985 ft 343 kts 192°
2026-04-20 14:05 13.40893 80.28271 17505 ft 342 kts 192°
2026-04-20 14:05 13.38585 80.27715 17030 ft 340 kts 192°
2026-04-20 14:05 13.36286 80.27160 16568 ft 339 kts 191°
2026-04-20 14:06 13.33997 80.26608 16114 ft 337 kts 191°
2026-04-20 14:06 13.31718 80.26059 15678 ft 336 kts 191°
2026-04-20 14:06 13.29479 80.25520 15257 ft 334 kts 191°
2026-04-20 14:06 13.27193 80.24970 14828 ft 332 kts 191°
2026-04-20 14:07 13.24952 80.24430 14410 ft 330 kts 191°
2026-04-20 14:07 13.22720 80.23893 14004 ft 328 kts 191°
2026-04-20 14:07 13.20542 80.23369 13605 ft 326 kts 190°
2026-04-20 14:07 13.18330 80.22837 13139 ft 325 kts 190°
2026-04-20 14:08 13.16139 80.22310 12699 ft 323 kts 190°
2026-04-20 14:08 13.13988 80.21786 12261 ft 322 kts 192°
2026-04-20 14:08 13.11941 80.20875 11780 ft 325 kts 214°
2026-04-20 14:08 13.10457 80.19145 11340 ft 325 kts 241°
2026-04-20 14:09 13.09560 80.17023 10947 ft 323 kts 249°
2026-04-20 14:09 13.08802 80.14862 10553 ft 320 kts 250°
2026-04-20 14:09 13.08061 80.12709 10152 ft 318 kts 250°
2026-04-20 14:09 13.07320 80.10582 9779 ft 316 kts 250°
2026-04-20 14:10 13.06574 80.08463 9247 ft 317 kts 250°
2026-04-20 14:10 13.05813 80.06320 8618 ft 321 kts 250°
2026-04-20 14:10 13.05018 80.04173 8111 ft 321 kts 249°
2026-04-20 14:10 13.04220 80.02072 7924 ft 309 kts 249°
2026-04-20 14:11 13.03453 80.00061 7773 ft 297 kts 249°
2026-04-20 14:11 13.02716 79.98132 7659 ft 285 kts 249°
2026-04-20 14:11 13.02010 79.96284 7305 ft 283 kts 249°
2026-04-20 14:11 13.01277 79.94365 6628 ft 296 kts 249°
2026-04-20 14:12 13.00443 79.92400 5836 ft 306 kts 238°
2026-04-20 14:12 12.98926 79.90874 4845 ft 310 kts 207°
2026-04-20 14:12 12.96859 79.90301 3770 ft 311 kts 177°
2026-04-20 14:12 12.94818 79.90870 2979 ft 303 kts 148°
2026-04-20 14:13 12.93378 79.92392 2529 ft 297 kts 123°
2026-04-20 14:13 12.92315 79.94147 2357 ft 280 kts 123°
2026-04-20 14:13 12.91683 79.95949 2336 ft 264 kts 96°
2026-04-20 14:13 12.91818 79.97739 2368 ft 241 kts 78°
2026-04-20 14:14 12.92366 79.99290 2318 ft 222 kts 69°
2026-04-20 14:14 12.92948 80.00672 2312 ft 201 kts 71°
2026-04-20 14:14 12.93440 80.01960 2306 ft 190 kts 72°
2026-04-20 14:14 12.93908 80.03220 2306 ft 188 kts 73°
2026-04-20 14:15 12.94373 80.04479 2194 ft 189 kts 73°
2026-04-20 14:15 12.94841 80.05742 1926 ft 188 kts 73°
2026-04-20 14:15 12.95307 80.06987 1675 ft 185 kts 73°
2026-04-20 14:15 12.95764 80.08203 1438 ft 181 kts 73°
2026-04-20 14:16 12.96210 80.09399 1201 ft 179 kts 73°
2026-04-20 14:16 12.96643 80.10558 993 ft 172 kts 72°
2026-04-20 14:16 12.97060 80.11668 791 ft 160 kts 75°
2026-04-20 14:16 12.97444 80.12699 608 ft 150 kts 73°
2026-04-20 14:17 12.97816 80.13694 396 ft 149 kts 75°
2026-04-20 14:17 12.98188 80.14693 230 ft 150 kts 73°
2026-04-20 14:17 12.98558 80.15690 55 ft 143 kts 69°
2026-04-20 14:17 12.98870 80.16516 57 ft 100 kts 69°
2026-04-20 14:18 12.99035 80.16967 50 ft 50 kts 63°
2026-04-20 14:18 12.99105 80.17131 56 ft 18 kts 64°
2026-04-20 14:18 12.99194 80.17188 55 ft 15 kts
2026-04-20 14:18 12.99291 80.17199 54 ft 12 kts 15°
2026-04-20 14:19 12.99309 80.17171 57 ft 5 kts 246°